Weather History for Fort Indiantown Gap, PA

Change the Weather History Date:

Friday, October 4, 2013

  Actual Average Record
Temperature  
Mean Temperature 70 °F -  
Max Temperature 83 °F 66 °F 83 °F (2007)
Min Temperature 57 °F 47 °F 35 °F (1996)
Cooling Degree Days 5    
Growing Degree Days 20 (Base 50)    
Moisture  
Dew Point 62 °F    
Average Humidity 96    
Maximum Humidity 100    
Minimum Humidity 51    
Precipitation  
Precipitation 0.33 in - - ()
Sea Level Pressure  
Sea Level Pressure 30.06 in    
Wind  
Wind Speed 1 mph (West)    
Max Wind Speed 16 mph    
Max Gust Speed 21 mph    
Visibility 3 miles    
Events Fog , Rain , Thunderstorm    
Averages and records for this station are not official NWS values.
T = Trace of Precipitation, MM = Missing Value Source: NWS Daily Summary

Daily Weather History Graph

Daily Weather History Graph

Search for Another Location

Airport:

Trip Planner

Search our weather history database for the weather conditions in past years. The results will help you decide how hot, cold, wet, or windy it might be!

Date:

Astronomy

Oct. 04, 2013 Rise Set
Actual Time 7:05 AM EDT 6:43 PM EDT
Civil Twilight 6:38 AM EDT 7:10 PM EDT
Nautical Twilight 6:07 AM EDT 7:41 PM EDT
Astronomical Twilight 5:35 AM EDT 8:13 PM EDT
Moon 6:39 AM EDT (10/4) 6:24 PM EDT (10/4)
Length of Visible Light 12h 31m
Length of Day
11h 37m
Waning Crescent, 0% of the Moon is Illuminated
Oct 4
Waning Crescent
Oct 4
New
Oct 11
First Quarter
Oct 18
Full
Oct 26
Last Quarter

Hourly Weather History & Observations

Time (EDT) Temp. Heat Index Dew Point Humidity Pressure Visibility Wind Dir Wind Speed Gust Speed Precip Events Conditions
12:58 AM 62.1 °F - 61.9 °F 99% 30.07 in 4.0 mi Calm Calm - N/A   Clear
1:28 AM 60.8 °F - 60.8 °F 100% 30.06 in 2.0 mi NNE 1.2 mph - N/A   Clear
1:30 AM 60.8 °F - 60.8 °F 100% 30.06 in 1.5 mi ENE 2.3 mph - N/A   Clear
1:38 AM 60.8 °F - 60.8 °F 100% 30.06 in 2.0 mi Calm Calm - N/A   Clear
1:40 AM 60.8 °F - 60.8 °F 100% 30.06 in 3.0 mi Calm Calm - N/A   Clear
1:58 AM 60.8 °F - 60.8 °F 100% 30.06 in 2.5 mi Calm Calm - N/A   Clear
2:02 AM 60.8 °F - 60.8 °F 100% 30.06 in 1.8 mi Calm Calm - N/A   Clear
2:06 AM 60.8 °F - 60.8 °F 100% 30.06 in 1.2 mi Calm Calm - N/A   Clear
2:08 AM 60.8 °F - 60.8 °F 100% 30.06 in 1.0 mi Calm Calm - N/A   Clear
2:12 AM 59.0 °F - 59.0 °F 100% 30.06 in 0.8 mi Calm Calm - N/A   Clear
2:18 AM 60.8 °F - 60.8 °F 100% 30.06 in 1.0 mi Calm Calm - N/A   Clear
2:20 AM 60.8 °F - 60.8 °F 100% 30.06 in 1.2 mi Calm Calm - N/A   Clear
2:22 AM 60.8 °F - 60.8 °F 100% 30.06 in 1.5 mi Calm Calm - N/A   Clear
2:24 AM 60.8 °F - 60.8 °F 100% 30.06 in 1.8 mi Calm Calm - N/A   Clear
2:26 AM 60.8 °F - 60.8 °F 100% 30.06 in 2.5 mi Calm Calm - N/A   Clear
2:38 AM 60.8 °F - 60.8 °F 100% 30.06 in 3.0 mi Calm Calm - N/A   Clear
2:56 AM 60.8 °F - 60.8 °F 100% 30.06 in 2.0 mi Calm Calm - N/A   Clear
2:58 AM 60.8 °F - 60.8 °F 100% 30.06 in 1.5 mi Calm Calm - N/A   Clear
3:00 AM 60.8 °F - 60.8 °F 100% 30.06 in 1.2 mi Calm Calm - N/A   Partly Cloudy
3:02 AM 60.8 °F - 60.8 °F 100% 30.06 in 1.0 mi Calm Calm - N/A   Partly Cloudy
3:04 AM 60.8 °F - 60.8 °F 100% 30.06 in 0.8 mi Calm Calm - N/A   Scattered Clouds
3:12 AM 60.8 °F - 60.8 °F 100% 30.06 in 1.0 mi Calm Calm - N/A   Mostly Cloudy
3:14 AM 59.0 °F - 59.0 °F 100% 30.06 in 1.2 mi Calm Calm - N/A   Mostly Cloudy
3:16 AM 60.8 °F - 60.8 °F 100% 30.06 in 1.2 mi Calm Calm - N/A   Mostly Cloudy
3:22 AM 60.8 °F - 60.8 °F 100% 30.06 in 1.2 mi Calm Calm - N/A   Mostly Cloudy
3:32 AM 60.8 °F - 60.8 °F 100% 30.06 in 1.5 mi Calm Calm - N/A   Mostly Cloudy
3:34 AM 60.8 °F - 60.8 °F 100% 30.06 in 2.0 mi Calm Calm - N/A   Mostly Cloudy
3:36 AM 60.8 °F - 60.8 °F 100% 30.06 in 3.0 mi Calm Calm - N/A   Mostly Cloudy
3:42 AM 60.8 °F - 60.8 °F 100% 30.06 in 2.5 mi Calm Calm - N/A   Mostly Cloudy
3:46 AM 59.0 °F - 59.0 °F 100% 30.06 in 1.8 mi Calm Calm - N/A   Mostly Cloudy
3:48 AM 60.8 °F - 60.8 °F 100% 30.06 in 2.0 mi Calm Calm - N/A   Mostly Cloudy
3:54 AM 59.0 °F - 59.0 °F 100% 30.06 in 4.0 mi Calm Calm - N/A   Mostly Cloudy
3:58 AM 60.8 °F - 60.8 °F 100% 30.06 in 2.5 mi Calm Calm - N/A   Scattered Clouds
4:04 AM 60.8 °F - 60.8 °F 100% 30.05 in 3.0 mi Calm Calm - N/A   Scattered Clouds
4:32 AM 60.8 °F - 60.8 °F 100% 30.05 in 2.5 mi Calm Calm - N/A   Clear
4:42 AM 60.8 °F - 60.8 °F 100% 30.06 in 1.5 mi Calm Calm - N/A   Clear
4:44 AM 59.0 °F - 59.0 °F 100% 30.06 in 1.2 mi Calm Calm - N/A   Clear
4:46 AM 59.0 °F - 59.0 °F 100% 30.06 in 1.0 mi Calm Calm - N/A   Clear
4:52 AM 59.0 °F - 59.0 °F 100% 30.06 in 1.2 mi Calm Calm - N/A   Clear
4:54 AM 59.0 °F - 59.0 °F 100% 30.06 in 1.2 mi Calm Calm - N/A   Clear
4:56 AM 59.0 °F - 59.0 °F 100% 30.06 in 1.8 mi Calm Calm - N/A   Clear
4:58 AM 59.5 °F - 59.5 °F 100% 30.06 in 1.8 mi Calm Calm - N/A   Clear
5:00 AM 59.0 °F - 59.0 °F 100% 30.06 in 1.5 mi Calm Calm - N/A   Clear
5:02 AM 59.0 °F - 59.0 °F 100% 30.06 in 1.2 mi North 1.2 mph - N/A   Clear
5:04 AM 59.0 °F - 59.0 °F 100% 30.06 in 1.2 mi North 2.3 mph - N/A   Clear
5:06 AM 59.0 °F - 59.0 °F 100% 30.06 in 1.2 mi North 1.2 mph - N/A   Clear
5:08 AM 59.0 °F - 59.0 °F 100% 30.06 in 1.5 mi Calm Calm - N/A   Clear
5:12 AM 59.0 °F - 59.0 °F 100% 30.06 in 2.5 mi Calm Calm - N/A   Clear
5:22 AM 59.0 °F - 59.0 °F 100% 30.06 in 1.5 mi Calm Calm - N/A   Clear
5:24 AM 59.0 °F - 59.0 °F 100% 30.06 in 1.0 mi North 1.2 mph - N/A   Clear
5:30 AM 59.0 °F - 59.0 °F 100% 30.06 in 1.2 mi Calm Calm - N/A   Clear
5:32 AM 59.0 °F - 59.0 °F 100% 30.06 in 1.0 mi Calm Calm - N/A   Clear
5:36 AM 59.0 °F - 59.0 °F 100% 30.06 in 0.8 mi Calm Calm - N/A   Clear
5:37 AM 59.0 °F - 59.0 °F 100% 30.06 in 0.5 mi Calm Calm - N/A Fog Fog
5:41 AM 59.0 °F - 59.0 °F 100% 30.06 in 0.2 mi Calm Calm - N/A Fog Fog
5:58 AM 59.4 °F - 59.4 °F 100% 30.06 in 0.2 mi North 1.2 mph - N/A Fog Fog
6:12 AM 59.0 °F - 59.0 °F 100% 30.07 in 0.2 mi Calm Calm - N/A Fog Fog
6:58 AM 58.5 °F - 58.5 °F 100% 30.08 in 0.2 mi Calm Calm - N/A Fog Fog
7:00 AM 59.0 °F - 59.0 °F 100% 30.07 in 0.5 mi Calm Calm - N/A Fog Fog
7:02 AM 57.2 °F - 57.2 °F 100% 30.07 in 0.2 mi Calm Calm - N/A Fog Fog
7:54 AM 59.0 °F - 59.0 °F 100% 30.08 in 0.5 mi Calm Calm - N/A Fog Fog
7:58 AM 59.0 °F - 59.0 °F 100% 30.10 in 0.8 mi Calm Calm - N/A   Scattered Clouds
8:04 AM 60.8 °F - 60.8 °F 100% 30.09 in 1.0 mi Calm Calm - N/A   Scattered Clouds
8:06 AM 60.8 °F - 60.8 °F 100% 30.09 in 1.2 mi Calm Calm - N/A   Scattered Clouds
8:08 AM 60.8 °F - 60.8 °F 100% 30.09 in 1.8 mi Calm Calm - N/A   Scattered Clouds
8:10 AM 60.8 °F - 60.8 °F 100% 30.09 in 2.0 mi Calm Calm - N/A   Scattered Clouds
8:30 AM 60.8 °F - 60.8 °F 100% 30.09 in 3.0 mi Calm Calm - N/A   Mostly Cloudy
8:58 AM 62.1 °F - 62.1 °F 100% 30.10 in 5.0 mi Calm Calm - N/A   Scattered Clouds
9:44 AM 66.2 °F - 66.2 °F 100% 30.10 in 6.0 mi Variable 3.5 mph - N/A   Light Drizzle
9:58 AM 66.4 °F - 66.4 °F 100% 30.11 in 4.0 mi SSW 3.5 mph - 0.00 in   Light Drizzle
9:59 AM 66.2 °F - 66.2 °F 100% 30.10 in 4.0 mi South 3.5 mph - N/A   Partly Cloudy
10:58 AM 71.6 °F - 66.9 °F 85% 30.09 in 7.0 mi Variable 2.3 mph - 0.00 in   Scattered Clouds
11:58 AM 77.4 °F - 65.8 °F 67% 30.07 in 10.0 mi West 9.2 mph - N/A   Scattered Clouds
12:58 PM 80.4 °F 82.2 °F 64.9 °F 59% 30.05 in 10.0 mi West 6.9 mph - N/A   Mostly Cloudy
1:58 PM 83.1 °F 84.2 °F 63.5 °F 51% 30.03 in 10.0 mi West 10.4 mph - N/A   Scattered Clouds
2:58 PM 82.6 °F 83.8 °F 63.3 °F 52% 30.02 in 10.0 mi West 6.9 mph - N/A   Scattered Clouds
3:58 PM 83.3 °F 84.8 °F 64.6 °F 53% 30.02 in 10.0 mi WSW 8.1 mph - N/A   Scattered Clouds
4:58 PM 82.8 °F 84.2 °F 63.9 °F 53% 30.01 in 10.0 mi Variable 2.3 mph - N/A   Clear
5:58 PM 81.9 °F 83.9 °F 65.7 °F 58% 30.01 in 10.0 mi NW 2.3 mph - N/A   Clear
6:58 PM 73.4 °F - 66.6 °F 79% 30.03 in 10.0 mi Calm Calm - N/A   Clear
7:58 PM 71.1 °F - 66.0 °F 84% 30.04 in 10.0 mi Calm Calm - N/A   Clear
8:58 PM 67.1 °F - 66.4 °F 98% 30.05 in 10.0 mi Calm Calm - N/A   Partly Cloudy
9:44 PM 66.2 °F - 66.2 °F 100% 30.04 in 10.0 mi North 2.3 mph - N/A Rain Light Rain
9:58 PM 66.7 °F - 66.4 °F 99% 30.06 in 8.0 mi NNW 3.5 mph - 0.00 in Rain Light Rain
10:08 PM 68.0 °F - 68.0 °F 100% 30.06 in 2.0 mi SW 13.8 mph 17.3 mph N/A Rain , Thunderstorm Heavy Rain
10:10 PM 69.8 °F - 68.0 °F 94% 30.06 in 1.2 mi SSW 9.2 mph 19.6 mph N/A Rain , Thunderstorm Heavy Rain
10:11 PM 69.8 °F - 68.0 °F 94% 30.06 in 1.2 mi SW 11.5 mph 19.6 mph N/A Rain , Thunderstorm Heavy Rain
10:13 PM 69.8 °F - 68.0 °F 94% 30.07 in 1.0 mi SW 16.1 mph 20.7 mph N/A Rain , Thunderstorm Heavy Rain
10:14 PM 71.6 °F - 68.0 °F 88% 30.07 in 0.8 mi SW 12.7 mph 20.7 mph N/A Rain , Thunderstorm Heavy Thunderstorms and Rain
10:18 PM 69.8 °F - 69.8 °F 100% 30.08 in 1.0 mi SW 11.5 mph 20.7 mph N/A Rain , Thunderstorm Heavy Thunderstorms and Rain
10:22 PM 69.8 °F - 69.8 °F 100% 30.07 in 1.5 mi South 8.1 mph 20.7 mph N/A Rain , Thunderstorm Light Thunderstorms and Rain
10:24 PM 69.8 °F - 68.0 °F 94% 30.07 in 2.5 mi South 8.1 mph - N/A Rain , Thunderstorm Light Thunderstorms and Rain
10:26 PM 69.8 °F - 68.0 °F 94% 30.07 in 4.0 mi South 6.9 mph - N/A Rain , Thunderstorm Light Thunderstorms and Rain
10:32 PM 68.0 °F - 68.0 °F 100% 30.06 in 9.0 mi Calm Calm - N/A Rain , Thunderstorm Light Rain
10:41 PM 68.0 °F - 68.0 °F 100% 30.06 in 10.0 mi North 4.6 mph - N/A   Mostly Cloudy
10:58 PM 68.0 °F - 67.6 °F 99% 30.05 in 8.0 mi Variable 3.5 mph - 0.33 in   Mostly Cloudy
11:58 PM 66.7 °F - 66.7 °F 100% 30.05 in 4.0 mi Calm Calm - N/A   Scattered Clouds